ANZ122 NZAA-YMML

Flight info

Callsign ANZ122
Flight time N/A
Altitude 34000
Route PEBLU N759 GEMAC Q302 RIMSU DCT BOYSE
Aircraft B77W/H-SDE1E2E3FGHIJ2J3J4J5M1RWXY/LB1D1

Departure

Time 2026-05-08 06:30
Airport Auckland International Airport (NZAA)

Arrival

Time N/A
Airport Melbourne Airport (YMML)
Time Latitude Longitude Altitude Speed Heading
2026-05-08 05:51 -37.00708 174.78305 30 ft 0 kts 296°
2026-05-08 05:58 -37.00709 174.78309 30 ft 24 kts 295°
2026-05-08 05:59 -37.00708 174.78305 30 ft 0 kts 296°
2026-05-08 06:16 -37.00717 174.78330 30 ft 4 kts 291°
2026-05-08 06:17 -37.00726 174.78394 28 ft 4 kts 245°
2026-05-08 06:17 -37.00717 174.78408 28 ft 1 kts 206°
2026-05-08 06:17 -37.00738 174.78395 29 ft 4 kts 205°
2026-05-08 06:18 -37.00763 174.78384 30 ft 4 kts 195°
2026-05-08 06:18 -37.00789 174.78379 30 ft 2 kts 186°
2026-05-08 06:18 -37.00791 174.78379 30 ft 0 kts 186°
2026-05-08 06:24 -37.00827 174.78375 30 ft 10 kts 185°
2026-05-08 06:24 -37.00896 174.78365 30 ft 10 kts 187°
2026-05-08 06:24 -37.00965 174.78362 30 ft 10 kts 169°
2026-05-08 06:24 -37.01032 174.78380 30 ft 10 kts 182°
2026-05-08 06:25 -37.01087 174.78332 30 ft 10 kts 240°
2026-05-08 06:25 -37.01114 174.78252 30 ft 10 kts 249°
2026-05-08 06:25 -37.01137 174.78170 30 ft 10 kts 251°
2026-05-08 06:25 -37.01162 174.78088 30 ft 10 kts 250°
2026-05-08 06:26 -37.01184 174.78005 30 ft 11 kts 252°
2026-05-08 06:26 -37.01212 174.77900 30 ft 13 kts 251°
2026-05-08 06:26 -37.01242 174.77795 30 ft 13 kts 250°
2026-05-08 06:26 -37.01270 174.77688 30 ft 13 kts 251°
2026-05-08 06:27 -37.01300 174.77584 30 ft 13 kts 251°
2026-05-08 06:27 -37.01329 174.77477 30 ft 13 kts 251°
2026-05-08 06:27 -37.01356 174.77370 30 ft 13 kts 252°
2026-05-08 06:27 -37.01386 174.77265 30 ft 13 kts 250°
2026-05-08 06:28 -37.01417 174.77159 30 ft 13 kts 248°
2026-05-08 06:28 -37.01451 174.77107 30 ft 0 kts 199°
2026-05-08 06:28 -37.01454 174.77107 30 ft 1 kts 191°
2026-05-08 06:28 -37.01472 174.77104 30 ft 4 kts 188°
2026-05-08 06:29 -37.01534 174.77091 30 ft 15 kts 188°
2026-05-08 06:29 -37.01603 174.77093 30 ft 6 kts 155°
2026-05-08 06:29 -37.01612 174.77140 30 ft 6 kts 77°
2026-05-08 06:29 -37.01597 174.77203 31 ft 17 kts 73°
2026-05-08 06:30 -37.01470 174.77663 31 ft 95 kts 70°
2026-05-08 06:30 -37.01171 174.78715 34 ft 159 kts 65°
2026-05-08 06:30 -37.00768 174.80118 395 ft 177 kts 65°
2026-05-08 06:30 -37.00352 174.81588 1096 ft 183 kts 63°
2026-05-08 06:31 -36.99952 174.83055 1972 ft 176 kts 60°
2026-05-08 06:31 -36.99526 174.84593 2306 ft 201 kts 59°
2026-05-08 06:31 -36.99025 174.86366 2506 ft 231 kts 60°
2026-05-08 06:31 -36.98477 174.88341 3046 ft 247 kts 61°
2026-05-08 06:32 -36.97903 174.90415 3721 ft 258 kts 61°
2026-05-08 06:32 -36.97305 174.92567 4453 ft 264 kts 61°
2026-05-08 06:32 -36.96690 174.94759 5163 ft 271 kts 62°
2026-05-08 06:32 -36.96058 174.97003 5959 ft 276 kts 62°
2026-05-08 06:33 -36.95424 174.99298 6688 ft 282 kts 66°
2026-05-08 06:33 -36.95313 175.01835 7264 ft 308 kts 97°
2026-05-08 06:33 -36.96260 175.04243 7949 ft 322 kts 130°
2026-05-08 06:33 -36.98086 175.05822 8740 ft 321 kts 163°
2026-05-08 06:34 -37.00249 175.06467 9459 ft 321 kts 168°
2026-05-08 06:34 -37.02418 175.07164 10049 ft 322 kts 175°
2026-05-08 06:34 -37.04628 175.06954 10543 ft 318 kts 207°
2026-05-08 06:34 -37.06468 175.05504 11078 ft 316 kts 232°
2026-05-08 06:35 -37.07767 175.03229 11270 ft 330 kts 251°
2026-05-08 06:35 -37.08605 175.00459 11488 ft 351 kts 257°
2026-05-08 06:35 -37.09390 174.97504 11992 ft 363 kts 258°
2026-05-08 06:35 -37.10198 174.94476 12194 ft 370 kts 257°
2026-05-08 06:36 -37.10891 174.91933 12985 ft 373 kts 257°
2026-05-08 06:36 -37.11458 174.89873 13683 ft 376 kts 257°
2026-05-08 06:36 -37.12317 174.86761 14591 ft 379 kts 257°
2026-05-08 06:36 -37.13184 174.83628 15537 ft 382 kts 257°
2026-05-08 06:37 -37.14069 174.80482 16501 ft 385 kts 255°
2026-05-08 06:37 -37.15087 174.77359 17435 ft 389 kts 253°
2026-05-08 06:37 -37.16185 174.74233 18306 ft 394 kts 252°
2026-05-08 06:37 -37.17307 174.71080 19049 ft 398 kts 252°
2026-05-08 06:38 -37.18435 174.67888 19780 ft 402 kts 252°
2026-05-08 06:38 -37.19552 174.64690 20461 ft 409 kts 252°
2026-05-08 06:38 -37.20693 174.61391 21096 ft 415 kts 252°
2026-05-08 06:38 -37.21841 174.58055 21786 ft 419 kts 252°
2026-05-08 06:39 -37.23003 174.54671 22490 ft 423 kts 252°
2026-05-08 06:39 -37.24172 174.51259 23156 ft 428 kts 252°
2026-05-08 06:39 -37.25355 174.47806 23738 ft 433 kts 252°
2026-05-08 06:39 -37.26551 174.44308 24293 ft 437 kts 252°
2026-05-08 06:40 -37.27741 174.40786 24868 ft 439 kts 254°
2026-05-08 06:40 -37.28785 174.37169 25438 ft 440 kts 257°
2026-05-08 06:40 -37.29708 174.33499 25953 ft 443 kts 259°
2026-05-08 06:40 -37.30592 174.29782 26498 ft 446 kts 259°
2026-05-08 06:41 -37.31480 174.26018 26955 ft 452 kts 259°
2026-05-08 06:41 -37.32391 174.22201 27355 ft 459 kts 259°
2026-05-08 06:41 -37.33325 174.18351 27858 ft 462 kts 259°
2026-05-08 06:41 -37.34263 174.14541 28358 ft 466 kts 258°
2026-05-08 06:42 -37.35232 174.10637 28812 ft 469 kts 258°
2026-05-08 06:42 -37.36210 174.06712 29258 ft 473 kts 258°
2026-05-08 06:42 -37.37195 174.02759 29717 ft 475 kts 258°
2026-05-08 06:42 -37.38183 173.98800 30234 ft 474 kts 258°
2026-05-08 06:43 -37.39165 173.94861 30842 ft 470 kts 258°
2026-05-08 06:43 -37.40137 173.90953 31481 ft 466 kts 259°
2026-05-08 06:43 -37.41110 173.87018 31685 ft 474 kts 259°
2026-05-08 06:43 -37.42087 173.83044 31914 ft 478 kts 259°
2026-05-08 06:44 -37.43071 173.79046 32442 ft 476 kts 259°
2026-05-08 06:44 -37.44051 173.75069 32783 ft 478 kts 259°
2026-05-08 06:44 -37.45032 173.71078 33180 ft 477 kts 259°
2026-05-08 06:44 -37.46012 173.67076 33438 ft 480 kts 259°
2026-05-08 06:45 -37.46983 173.63107 33690 ft 482 kts 259°
2026-05-08 06:45 -37.47975 173.59040 33740 ft 487 kts 259°
2026-05-08 06:45 -37.49965 173.50886 33808 ft 486 kts 260°
2026-05-08 06:46 -37.51948 173.42737 33784 ft 487 kts 260°
2026-05-08 06:46 -37.53927 173.34573 33792 ft 487 kts 261°
2026-05-08 06:47 -37.55899 173.26402 33775 ft 487 kts 261°
2026-05-08 06:47 -37.57863 173.18236 33771 ft 486 kts 261°
2026-05-08 06:48 -37.59808 173.10118 33762 ft 487 kts 261°
2026-05-08 06:48 -37.61761 173.01946 33764 ft 486 kts 261°
2026-05-08 06:49 -37.63708 172.93769 33755 ft 486 kts 261°
2026-05-08 06:49 -37.65647 172.85598 33754 ft 486 kts 261°
2026-05-08 06:50 -37.67587 172.77387 34003 ft 490 kts 261°
2026-05-08 06:50 -37.68558 172.73274 34421 ft 485 kts 261°
2026-05-08 06:50 -37.69515 172.69230 34965 ft 478 kts 261°
2026-05-08 06:51 -37.70459 172.65234 35447 ft 473 kts 261°
2026-05-08 06:51 -37.71395 172.61250 35630 ft 473 kts 261°
2026-05-08 06:51 -37.73252 172.53298 35735 ft 469 kts 262°
2026-05-08 06:52 -37.75078 172.45463 35739 ft 467 kts 262°
2026-05-08 06:52 -37.76897 172.37648 35742 ft 459 kts 262°
2026-05-08 06:53 -37.78682 172.29949 35732 ft 455 kts 262°
2026-05-08 06:53 -37.80451 172.22276 35732 ft 454 kts 262°
2026-05-08 06:54 -37.82213 172.14611 35732 ft 454 kts 262°
2026-05-08 06:54 -37.83960 172.06991 35725 ft 454 kts 262°
2026-05-08 06:55 -37.85717 171.99308 35729 ft 455 kts 261°
2026-05-08 06:55 -37.87472 171.91607 35727 ft 456 kts 261°
2026-05-08 06:56 -37.89229 171.83878 35723 ft 456 kts 261°
2026-05-08 06:56 -37.90977 171.76158 35733 ft 457 kts 262°
2026-05-08 06:57 -37.92722 171.68420 35724 ft 457 kts 262°
2026-05-08 06:57 -37.94467 171.60663 35720 ft 458 kts 261°
2026-05-08 06:58 -37.96207 171.52906 35712 ft 456 kts 261°
2026-05-08 06:58 -37.97921 171.45236 35703 ft 454 kts 262°
2026-05-08 06:59 -37.99636 171.37536 35685 ft 453 kts 262°
2026-05-08 06:59 -38.01337 171.29865 35690 ft 451 kts 262°
2026-05-08 07:00 -38.03031 171.22204 35700 ft 451 kts 262°
2026-05-08 07:00 -38.04717 171.14550 35684 ft 449 kts 262°
2026-05-08 07:01 -38.06394 171.06912 35687 ft 449 kts 262°
2026-05-08 07:01 -38.08053 170.99333 35680 ft 448 kts 262°
2026-05-08 07:02 -38.09718 170.91699 35684 ft 448 kts 262°
2026-05-08 07:02 -38.11309 170.84037 35671 ft 444 kts 266°
2026-05-08 07:03 -38.12029 170.77637 35675 ft 438 kts 270°
2026-05-08 07:03 -38.12611 170.69954 35660 ft 437 kts 271°
2026-05-08 07:04 -38.13218 170.62274 35662 ft 436 kts 270°
2026-05-08 07:04 -38.13884 170.54609 35659 ft 436 kts 270°
2026-05-08 07:05 -38.14575 170.46956 35665 ft 436 kts 270°
2026-05-08 07:05 -38.15268 170.39307 35658 ft 435 kts 270°
2026-05-08 07:06 -38.15950 170.31708 35660 ft 435 kts 270°
2026-05-08 07:06 -38.16628 170.24076 35654 ft 434 kts 270°
2026-05-08 07:07 -38.17300 170.16452 35699 ft 434 kts 270°
2026-05-08 07:07 -38.17968 170.08817 35655 ft 435 kts 270°
2026-05-08 07:08 -38.18631 170.01186 35638 ft 434 kts 270°
2026-05-08 07:08 -38.19288 169.93566 35645 ft 433 kts 270°
2026-05-08 07:09 -38.19939 169.85954 35636 ft 432 kts 271°
2026-05-08 07:09 -38.20580 169.78398 35669 ft 432 kts 271°
2026-05-08 07:10 -38.21220 169.70795 35640 ft 432 kts 271°
2026-05-08 07:10 -38.21855 169.63192 35627 ft 432 kts 271°
2026-05-08 07:11 -38.22484 169.55600 35624 ft 431 kts 271°
2026-05-08 07:11 -38.23108 169.48014 35623 ft 431 kts 271°
2026-05-08 07:12 -38.23726 169.40438 35648 ft 431 kts 271°
2026-05-08 07:12 -38.24340 169.32851 35626 ft 431 kts 271°
2026-05-08 07:13 -38.24948 169.25283 35613 ft 430 kts 271°
2026-05-08 07:13 -38.25550 169.17721 35605 ft 429 kts 271°
2026-05-08 07:14 -38.26146 169.10168 35597 ft 429 kts 271°
2026-05-08 07:14 -38.26733 169.02661 35600 ft 428 kts 271°
2026-05-08 07:15 -38.27319 168.95115 35516 ft 428 kts 271°
2026-05-08 07:15 -38.27611 168.91347 35648 ft 426 kts 271°
2026-05-08 07:15 -38.27900 168.87594 35599 ft 427 kts 271°
2026-05-08 07:16 -38.28473 168.80040 35601 ft 430 kts 272°
2026-05-08 07:16 -38.29047 168.72439 35601 ft 432 kts 272°
2026-05-08 07:17 -38.29620 168.64820 35592 ft 433 kts 272°
2026-05-08 07:17 -38.30188 168.57206 35585 ft 431 kts 272°
2026-05-08 07:18 -38.30744 168.49674 35582 ft 429 kts 272°
2026-05-08 07:18 -38.31296 168.42130 35583 ft 427 kts 272°
2026-05-08 07:19 -38.31841 168.34600 35591 ft 427 kts 272°
2026-05-08 07:19 -38.32381 168.27056 35586 ft 427 kts 272°
2026-05-08 07:20 -38.32915 168.19525 35585 ft 427 kts 272°
2026-05-08 07:20 -38.33444 168.12022 35572 ft 428 kts 272°
2026-05-08 07:21 -38.33971 168.04468 35565 ft 428 kts 272°
2026-05-08 07:21 -38.34495 167.96897 35566 ft 429 kts 272°
2026-05-08 07:22 -38.35013 167.89321 35576 ft 430 kts 272°
2026-05-08 07:22 -38.35529 167.81728 35569 ft 430 kts 272°
2026-05-08 07:23 -38.36039 167.74140 35570 ft 430 kts 272°
2026-05-08 07:23 -38.36544 167.66563 35572 ft 429 kts 272°
2026-05-08 07:24 -38.37043 167.58980 35587 ft 429 kts 271°
2026-05-08 07:24 -38.37538 167.51386 35565 ft 430 kts 271°
2026-05-08 07:25 -38.38029 167.43784 35559 ft 430 kts 271°
2026-05-08 07:26 -38.38757 167.32378 35556 ft 430 kts 271°
2026-05-08 07:26 -38.39235 167.24774 35556 ft 430 kts 272°
2026-05-08 07:27 -38.39708 167.17168 35562 ft 431 kts 271°
2026-05-08 07:27 -38.40175 167.09600 35557 ft 431 kts 271°
2026-05-08 07:28 -38.40640 167.01977 35550 ft 432 kts 271°
2026-05-08 07:28 -38.41101 166.94331 35546 ft 433 kts 271°
2026-05-08 07:29 -38.41558 166.86670 35552 ft 433 kts 271°
2026-05-08 07:29 -38.42011 166.78987 35560 ft 435 kts 271°
2026-05-08 07:30 -38.42460 166.71285 35556 ft 436 kts 271°
2026-05-08 07:30 -38.42907 166.63550 35558 ft 437 kts 271°
2026-05-08 07:31 -38.43348 166.55816 35556 ft 437 kts 271°
2026-05-08 07:31 -38.43782 166.48119 35558 ft 438 kts 271°
2026-05-08 07:32 -38.44217 166.40323 35550 ft 438 kts 271°
2026-05-08 07:32 -38.44640 166.32630 35549 ft 438 kts 271°
2026-05-08 07:33 -38.45061 166.24891 35555 ft 438 kts 271°
2026-05-08 07:33 -38.45477 166.17148 35554 ft 437 kts 271°
2026-05-08 07:34 -38.45887 166.09398 35561 ft 438 kts 270°
2026-05-08 07:34 -38.46293 166.01643 35566 ft 438 kts 270°
2026-05-08 07:35 -38.46695 165.93880 35554 ft 438 kts 271°
2026-05-08 07:35 -38.47091 165.86123 35557 ft 438 kts 271°
2026-05-08 07:36 -38.47482 165.78365 35583 ft 438 kts 271°
2026-05-08 07:36 -38.47868 165.70574 35575 ft 440 kts 270°
2026-05-08 07:37 -38.48248 165.62823 35584 ft 441 kts 270°
2026-05-08 07:37 -38.48628 165.54996 35578 ft 442 kts 270°
2026-05-08 07:38 -38.49002 165.47152 35568 ft 443 kts 270°
2026-05-08 07:38 -38.49371 165.39302 35572 ft 443 kts 270°
2026-05-08 07:39 -38.49735 165.31452 35577 ft 443 kts 270°
2026-05-08 07:39 -38.50094 165.23602 35581 ft 443 kts 270°
2026-05-08 07:40 -38.50447 165.15763 35585 ft 442 kts 270°
2026-05-08 07:40 -38.50793 165.07973 35590 ft 442 kts 270°
2026-05-08 07:41 -38.51135 165.00132 35598 ft 443 kts 270°
2026-05-08 07:41 -38.51473 164.92273 35588 ft 443 kts 270°
2026-05-08 07:42 -38.51806 164.84411 35589 ft 443 kts 270°
2026-05-08 07:42 -38.52133 164.76551 35595 ft 443 kts 270°
2026-05-08 07:43 -38.52455 164.68687 35606 ft 443 kts 270°
2026-05-08 07:43 -38.52773 164.60824 35610 ft 443 kts 270°
2026-05-08 07:44 -38.53083 164.53005 35602 ft 443 kts 270°
2026-05-08 07:44 -38.53389 164.45145 35608 ft 443 kts 270°
2026-05-08 07:45 -38.53691 164.37277 35613 ft 443 kts 270°
2026-05-08 07:45 -38.53986 164.29404 35623 ft 444 kts 269°
2026-05-08 07:46 -38.54278 164.21526 35620 ft 444 kts 269°
2026-05-08 07:46 -38.54564 164.13659 35623 ft 443 kts 270°
2026-05-08 07:47 -38.54842 164.05840 35624 ft 443 kts 270°
2026-05-08 07:47 -38.55117 163.97973 35631 ft 443 kts 269°
2026-05-08 07:48 -38.55387 163.90103 35629 ft 444 kts 269°
2026-05-08 07:48 -38.55652 163.82230 35631 ft 444 kts 269°
2026-05-08 07:49 -38.55912 163.74333 35636 ft 444 kts 269°
2026-05-08 07:49 -38.56165 163.66472 35639 ft 444 kts 269°
2026-05-08 07:50 -38.56415 163.58552 35655 ft 445 kts 269°
2026-05-08 07:50 -38.56660 163.50638 35652 ft 446 kts 269°
2026-05-08 07:51 -38.56900 163.42721 35650 ft 446 kts 269°
2026-05-08 07:51 -38.57132 163.34852 35654 ft 446 kts 269°
2026-05-08 07:52 -38.57361 163.26941 35654 ft 446 kts 269°
2026-05-08 07:52 -38.57584 163.19026 35659 ft 446 kts 269°
2026-05-08 07:53 -38.57802 163.11108 35667 ft 446 kts 269°
2026-05-08 07:53 -38.58017 163.03177 35666 ft 447 kts 269°
2026-05-08 07:54 -38.58224 162.95240 35673 ft 447 kts 269°
2026-05-08 07:54 -38.58423 162.87296 35672 ft 447 kts 269°
2026-05-08 07:55 -38.58618 162.79342 35681 ft 448 kts 269°
2026-05-08 07:55 -38.58807 162.71441 35677 ft 448 kts 269°
2026-05-08 07:56 -38.58992 162.63482 35689 ft 448 kts 269°
2026-05-08 07:56 -38.59143 162.56809 35680 ft 448 kts 269°
2026-05-08 07:57 -38.59317 162.48898 35682 ft 448 kts 269°
2026-05-08 07:57 -38.59487 162.40932 35689 ft 448 kts 269°
2026-05-08 07:58 -38.59651 162.32966 35693 ft 448 kts 269°
2026-05-08 07:58 -38.59810 162.25003 35700 ft 448 kts 269°
2026-05-08 07:59 -38.59963 162.17039 35689 ft 448 kts 269°
2026-05-08 07:59 -38.60111 162.09087 35695 ft 448 kts 269°
2026-05-08 08:00 -38.60254 162.01118 35694 ft 448 kts 269°
2026-05-08 08:00 -38.60391 161.93160 35715 ft 448 kts 269°
2026-05-08 08:01 -38.60523 161.85210 35718 ft 448 kts 269°
2026-05-08 08:01 -38.60649 161.77281 35713 ft 449 kts 269°
2026-05-08 08:02 -38.60771 161.69294 35714 ft 449 kts 269°
2026-05-08 08:02 -38.60887 161.61298 35712 ft 450 kts 269°
2026-05-08 08:03 -38.60998 161.53295 35711 ft 450 kts 269°
2026-05-08 08:03 -38.61104 161.45273 35715 ft 451 kts 269°
2026-05-08 08:04 -38.61203 161.37310 35719 ft 451 kts 269°
2026-05-08 08:04 -38.61298 161.29290 35721 ft 451 kts 269°
2026-05-08 08:05 -38.61387 161.21268 35730 ft 451 kts 269°
2026-05-08 08:05 -38.61471 161.13243 35726 ft 451 kts 269°
2026-05-08 08:06 -38.61550 161.05206 35729 ft 451 kts 269°
2026-05-08 08:06 -38.61622 160.97230 35738 ft 452 kts 269°
2026-05-08 08:07 -38.61689 160.89200 35733 ft 452 kts 269°
2026-05-08 08:07 -38.61751 160.81168 35737 ft 452 kts 269°
2026-05-08 08:08 -38.61808 160.73137 35739 ft 452 kts 269°
2026-05-08 08:08 -38.61859 160.65103 35752 ft 452 kts 269°
2026-05-08 08:09 -38.61904 160.57058 35745 ft 453 kts 269°
2026-05-08 08:09 -38.61944 160.49000 35743 ft 453 kts 269°
2026-05-08 08:10 -38.61979 160.40918 35747 ft 454 kts 269°
2026-05-08 08:10 -38.62008 160.32894 35750 ft 455 kts 269°
2026-05-08 08:11 -38.62032 160.24788 35753 ft 455 kts 269°
2026-05-08 08:11 -38.62050 160.16688 35746 ft 456 kts 269°
2026-05-08 08:12 -38.62062 160.08582 35756 ft 456 kts 269°
2026-05-08 08:12 -38.62069 160.00474 35758 ft 456 kts 269°
2026-05-08 08:13 -38.62071 159.92363 35763 ft 456 kts 269°
2026-05-08 08:13 -38.62066 159.84251 35753 ft 456 kts 269°
2026-05-08 08:14 -38.62056 159.76145 35763 ft 456 kts 269°
2026-05-08 08:14 -38.62041 159.68014 35764 ft 457 kts 269°
2026-05-08 08:15 -38.62020 159.59950 35772 ft 457 kts 269°
2026-05-08 08:15 -38.61993 159.51819 35762 ft 457 kts 269°
2026-05-08 08:16 -38.61960 159.43685 35781 ft 457 kts 269°
2026-05-08 08:16 -38.61923 159.35541 35773 ft 458 kts 269°
2026-05-08 08:17 -38.61879 159.27384 35781 ft 459 kts 269°
2026-05-08 08:17 -38.61829 159.19215 35776 ft 460 kts 269°
2026-05-08 08:18 -38.61774 159.11036 35778 ft 460 kts 269°
2026-05-08 08:18 -38.61714 159.02900 35788 ft 461 kts 269°
2026-05-08 08:19 -38.61647 158.94708 35785 ft 461 kts 269°
2026-05-08 08:19 -38.61574 158.86502 35784 ft 461 kts 269°
2026-05-08 08:20 -38.61496 158.78293 35783 ft 462 kts 269°
2026-05-08 08:20 -38.61412 158.70074 35784 ft 462 kts 269°
2026-05-08 08:21 -38.61322 158.61853 35788 ft 462 kts 269°